Location: Marshall
(39.8477°N, 87.1868°W)
Time: 03:58:08
(UTC+00:00)

HTV-X1 - Visible Passes

Search period start: 20 May 2026 00:00
Search period end: 30 May 2026 00:00
Orbit: 372 x 382 km, 51.6° (Epoch: 19 May)

Date Brightness Start Highest point End Pass type
(mag) Time Alt. Az. Time Alt. Az. Time Alt. Az.
20 May ? 02:50:33 10° NNW 02:52:20 14° NNE 02:54:08 10° NE visible
20 May ? 04:25:37 10° NW 04:26:13 15° NW 04:26:13 15° NW visible
21 May ? 01:50:01 10° N 01:50:51 11° N 01:51:40 10° NNE visible
21 May ? 03:24:42 10° NW 03:27:16 30° NNE 03:27:16 30° NNE visible
22 May ? 02:23:54 10° NNW 02:26:07 18° NNE 02:28:17 10° ENE visible
22 May ? 03:59:11 10° NW 04:00:22 21° WNW 04:00:22 21° WNW visible
23 May ? 02:58:02 10° NW 03:01:02 45° NNE 03:01:23 43° ENE visible
24 May ? 01:57:03 10° NNW 01:59:37 23° NNE 02:02:10 10° E visible
24 May ? 03:32:40 10° WNW 03:34:27 28° W 03:34:27 28° W visible
25 May ? 02:31:15 10° NW 02:34:20 75° NE 02:35:27 35° ESE visible
26 May ? 03:06:05 10° WNW 03:08:31 24° SW 03:08:31 24° SW visible
27 May ? 02:04:19 10° WNW 02:07:21 64° SW 02:09:31 17° SE visible
28 May ? 02:39:36 10° W 02:41:27 15° SW 02:42:36 13° SSW visible
29 May ? 01:37:17 10° WNW 01:40:09 37° SW 01:43:00 10° SSE visible
